TimeCST,TemperatureF,Dew PointF,Humidity,Sea Level PressureIn,VisibilityMPH,Wind Direction,Wind SpeedMPH,Gust SpeedMPH,PrecipitationIn,Events,Conditions,WindDirDegrees,DateUTC
12:55 AM,41.0,41.0,100,30.03,6.0,Calm,Calm,-,N/A,Rain,Light Rain,0,2013-01-01 06:55:00
1:55 AM,41.0,41.0,100,30.04,6.0,Calm,Calm,-,N/A,Rain,Light Rain,0,2013-01-01 07:55:00
2:15 AM,39.2,39.2,100,30.03,7.0,Calm,Calm,-,N/A,,Overcast,0,2013-01-01 08:15:00
2:35 AM,41.0,41.0,100,30.03,9.0,Calm,Calm,-,N/A,,Partly Cloudy,0,2013-01-01 08:35:00
2:55 AM,41.0,41.0,100,30.03,7.0,Calm,Calm,-,N/A,,Scattered Clouds,0,2013-01-01 08:55:00
3:15 AM,41.0,41.0,100,30.06,9.0,Calm,Calm,-,N/A,,Overcast,0,2013-01-01 09:15:00
3:35 AM,41.0,41.0,100,30.05,7.0,NW,3.5,-,N/A,,Overcast,320,2013-01-01 09:35:00
3:55 AM,41.0,41.0,100,30.04,6.0,North,5.8,-,N/A,,Overcast,350,2013-01-01 09:55:00
4:15 AM,39.2,39.2,100,30.03,2.5,North,5.8,-,N/A,,Overcast,360,2013-01-01 10:15:00
4:35 AM,41.0,41.0,100,30.05,1.2,WNW,3.5,-,N/A,,Overcast,300,2013-01-01 10:35:00
4:55 AM,41.0,41.0,100,30.05,0.8,NW,3.5,-,N/A,,Overcast,310,2013-01-01 10:55:00
6:55 AM,39.2,39.2,100,30.04,6.0,North,8.1,-,N/A,,Overcast,360,2013-01-01 12:55:00
7:55 AM,39.2,39.2,100,30.08,6.0,North,4.6,-,N/A,,Overcast,10,2013-01-01 13:55:00
8:55 AM,39.2,39.2,100,30.10,5.0,North,6.9,-,N/A,,Overcast,10,2013-01-01 14:55:00
9:55 AM,39.2,39.2,100,30.12,5.0,North,5.8,-,N/A,,Overcast,10,2013-01-01 15:55:00
10:55 AM,39.2,37.4,93,30.13,10.0,North,9.2,-,N/A,,Overcast,10,2013-01-01 16:55:00
11:55 AM,39.2,39.2,100,30.14,10.0,NNW,9.2,-,N/A,,Overcast,330,2013-01-01 17:55:00
12:55 PM,39.2,37.4,93,30.08,5.0,North,5.8,-,N/A,,Overcast,360,2013-01-01 18:55:00
1:55 PM,39.2,37.4,93,30.07,10.0,North,6.9,-,N/A,,Overcast,10,2013-01-01 19:55:00
2:55 PM,39.2,37.4,93,30.08,10.0,North,8.1,-,N/A,,Overcast,360,2013-01-01 20:55:00
3:55 PM,37.4,35.6,93,30.11,7.0,North,10.4,-,N/A,,Overcast,360,2013-01-01 21:55:00
4:55 PM,35.6,33.8,93,30.14,2.0,North,9.2,-,N/A,,Overcast,350,2013-01-01 22:55:00
5:55 PM,33.8,33.8,100,30.17,10.0,North,8.1,-,N/A,,Overcast,350,2013-01-01 23:55:00
6:55 PM,33.8,30.2,87,30.18,10.0,North,9.2,-,N/A,,Overcast,350,2013-01-02 00:55:00
7:55 PM,32.0,28.4,87,30.19,10.0,North,6.9,-,N/A,,Overcast,350,2013-01-02 01:55:00
8:55 PM,30.2,28.4,93,30.19,10.0,North,6.9,-,N/A,,Overcast,360,2013-01-02 02:55:00
9:55 PM,30.2,26.6,86,30.21,10.0,North,9.2,-,N/A,,Overcast,360,2013-01-02 03:55:00
10:55 PM,30.2,26.6,86,30.23,10.0,North,8.1,-,N/A,,Mostly Cloudy,350,2013-01-02 04:55:00
11:55 PM,28.4,24.8,86,30.21,9.0,North,8.1,-,N/A,,Mostly Cloudy,350,2013-01-02 05:55:00